Starlink 32545

operational
NORAD ID: 62135 Int'l Des: 2024-222 Owner: SPXS Country: US Constellation: starlink
LEOCIRCULAR

Über Starlink 32545

Beschreibung wird geladen...

Live-Position

3D-Globus wird geladen...

Nächste Überflüge

Höhenverlauf

Altitude vs Time

uPlot chart will show altitude changes over time

Zweizeiliger Elementsatz

1 62135U 24222X 25353.65197738 .00015523 00000-0 57175-3 0 9997
2 62135 43.0014 228.5912 0001639 255.9560 104.1110 15.27618371 60556
Epoch: 19. Dez. 2025 • Age: 17 hours

Aktueller Status

Höhe 487.8 km
Geschwindigkeit 7.62 km/s
Subsatellitenpunkt -23.04°S, 22.95°W
Startdatum 27. Nov. 2024
Alter 1 years
Typ internet

Technische Details

Klassifizierung Payload
Masse 730.00 kg
Trockenmasse 700.00 kg
Gesamtmasse 730.00 kg
Länge 0.30 m
Durchmesser 4.10 m
Spannweite 29.00 m
Form Box + pan
Hersteller SPXS
Bus-Typ Starlink V2M
Phasenstatus In Orbit
Besitzer/Staat SPXS/US

Große Konstellationen

Loading constellations...